Regional Weather Roundup
Issued by NWS

Home | Current Version | Previous Version | Graphics & Text | Print | Product List | Glossary On
Versions: 1 2 3 4 5 6 7 8 9 10 11 12 13 14 15 16 17 18 19 20 21 22 23 24 25 26 27 28 29 30 31 32 33 34 35 36 37 38 39 40 41 42 43 44 45 46 47 48 49 50
910
ASUS43 KOAX 311902
RWRNE

WEATHER ROUNDUP FOR NEBRASKA
NATIONAL WEATHER SERVICE OMAHA NE
200 PM CDT WED AUG 31 2016

NOTES: SATELLITE DATA IS BEING USED TO AUGMENT CLOUD COVER ABOVE
       12000 FEET.
       "FAIR" INDICATES FEW OR NO CLOUDS BELOW 12,000 FEET WITH NO
       SIGNIFICANT WEATHER AND/OR OBSTRUCTIONS TO VISIBILITY.

  * THESE STATIONS DO NOT REPORT WEATHER SUCH AS RAIN...SNOW OR FOG.

NEZ001>004-019>022-054>056-312000-
NEBRASKA PANHANDLE

CITY           SKY/WX    TMP DP  RH WIND       PRES   REMARKS
SCOTTSBLUFF    MOSUNNY   77  59  53 E12       30.24F
ALLIANCE       MOSUNNY   78  58  49 SE15G23   30.25F
CHADRON        SUNNY     81  55  40 SE16G22   30.20F
SIDNEY         PTSUNNY   72  61  68 SE12      30.28F
$$

NEZ057>060-069>072-079>082-312000-
SOUTHWEST NEBRASKA

CITY           SKY/WX    TMP DP  RH WIND       PRES   REMARKS
NORTH PLATTE   MOSUNNY   80  60  50 SE15G21   30.23F
IMPERIAL       PTSUNNY   73  64  73 S9        30.24F
LEXINGTON      CLOUDY    75  63  66 E10       30.23F
MCCOOK         CLOUDY    76  64  66 E12       30.21F
OGALLALA       LGT RAIN  74  63  67 E9        30.24F
$$

NEZ005>010-023>029-035>040-094-312000-
NORTH CENTRAL NEBRASKA

CITY           SKY/WX    TMP DP  RH WIND       PRES   REMARKS
VALENTINE      MOSUNNY   80  60  50 SE12      30.24F
AINSWORTH      MOSUNNY   81  63  54 E8        30.24F
BROKEN BOW     PTSUNNY   77  63  61 SE9       30.24F
O`NEILL        SUNNY     82  53  36 E7        30.23F
ORD            SUNNY     80  60  50 E5        30.21F
THEDFORD       CLOUDY    80  62  54 SE12G20   30.26F
$$

NEZ041-046>049-061>064-073>077-083>087-312000-
SOUTH CENTRAL NEBRASKA

CITY           SKY/WX    TMP DP  RH WIND       PRES   REMARKS
GRAND ISLAND   MOSUNNY   79  65  62 NE9       30.21F
AURORA         PTSUNNY   78  67  69 NE6       30.20F
HASTINGS       CLOUDY    76  66  71 E8        30.22F
HEBRON         CLOUDY    75  68  78 NE7       30.18F
HOLDREGE       CLOUDY    75  65  71 E8        30.22F
KEARNEY *      CLOUDY    75  64  69 E7        30.21F
YORK           CLOUDY    77  61  57 N9        30.20F
$$

NEZ011>018-030>034-042>045-312000-
NORTHEAST NEBRASKA

CITY           SKY/WX    TMP DP  RH WIND       PRES   REMARKS
NORFOLK        SUNNY     80  54  40 NE6       30.21F
ALBION         SUNNY     78  61  55 E6        30.22F
BLAIR          SUNNY     78  59  51 NE9       30.19F
FREMONT        MOSUNNY   77  59  53 N3        30.20F
TEKAMAH        SUNNY     80  60  50 N6        30.18F
WAYNE          SUNNY     77  62  59 NE6       30.22F
$$

NEZ050>053-065>068-078-088>093-312000-
SOUTHEAST NEBRASKA

CITY           SKY/WX    TMP DP  RH WIND       PRES   REMARKS
LINCOLN        PTSUNNY   79  60  52 NE9       30.18F
OMAHA EPPLEY   MOSUNNY   82  60  47 N10       30.18S
BEATRICE       CLOUDY    76  63  64 NE6       30.17S
FALLS CITY     CLOUDY    77  67  71 N8        30.14F
NEBRASKA CITY  MOSUNNY   78  57  48 NE7       30.17F
PLATTSMOUTH    SUNNY     80  60  51 NE9       30.18F
$$

NEZ044-045-051>053-067-312000-
OMAHA AREA

CITY           SKY/WX    TMP DP  RH WIND       PRES   REMARKS
OMAHA EPPLEY   MOSUNNY   82  60  47 N10       30.18S
BLAIR          SUNNY     78  59  51 NE9       30.19F
FREMONT        MOSUNNY   77  59  53 N3        30.20F
MILLARD        SUNNY    N/A N/A N/A N3        30.18S
OFFUTT AFB     MOSUNNY   80  60  50 N8        30.17F
PLATTSMOUTH    SUNNY     80  60  51 NE9       30.18F
WAHOO          FAIR      78  60  54 NE8       30.19F
$$




USA.gov is the U.S. government's official web portal to all federal, state and local government web resources and services.